User: anonymous   Login
Location: Theydon Bois
(51.6750°N, 0.1050°E)
Time: 04:38:54
(UTC+00:00)
Language:

Meteor 1-22 Rocket - Orbit

View from above orbital plane
View from above orbital plane
View from above satellite
View from above satellite

Ground track
Ground track

The orbit data is extracted from the following two-line orbital elements,

1 08294U 75087B   17348.78439611  .00000106  00000-0  52098-4 0  9997
2 08294  81.2154 206.5046 0105261 252.8546 106.1077 14.08608395170268
Epoch (UTC): 14 December 2017 18:49:31
Eccentricity: 0.0105261
inclination: 81.2154°
perigee height: 788 km
apogee height: 940 km
right ascension of ascending node: 206.5046°
argument of perigee: 252.8546°
revolutions per day: 14.08608395
mean anomaly at epoch: 106.1077°
orbit number at epoch: 17026

The dashed part of the orbit path shows where the satellite is in the earth's shadow,  

DLR